[[{"header":{"parameterUnit":"m.s-1","parameterCategory":1,"la1":30.2991,"la2":30.254,"lo1":-89.0895,"lo2":-89.0444,"dy":0.0017,"dx":0.0017,"nx":28,"ny":28,"refTime":"2024-03-21T21:00:00:Z","depth":0,"parameterNumber":2,"parameterNumberName":"U-component_of_WINDS"},"data":[0,0,0,0,0,0,0,0,0,0,0,0,0,0,0,0,0,0,0,0,0,0,0,0,0,0,0,0,0,0,0,0,0,0,0,0,0,0,0,0,0,0,0,0,0,0,0,0,0,0,0,0,0,0,0,0,0,0,1.4467,1.4467,0,1.449,1.449,1.449,1.448,1.448,1.4479,1.4479,1.4504,1.4505,1.4506,0,0,0,0,0,0,0,0,0,0,0,0,0,1.4416,1.4417,1.4467,1.4467,1.4467,1.449,1.449,1.449,1.448,1.448,1.4479,1.4478,1.4503,1.4505,1.4506,0,0,0,0,0,0,0,0,0,0,0,0,0,1.4439,1.4418,1.4467,1.4465,1.4465,1.449,1.449,1.449,1.4481,1.448,1.4479,1.4478,1.4503,1.4505,1.4507,1.4535,0,0,1.4512,1.4513,0,0,0,0,0,0,0,0,1.4438,1.4441,1.4465,1.4465,1.4465,1.4481,1.4482,1.4505,1.4481,1.4475,1.4479,1.4478,1.4497,1.4499,1.4506,1.4536,1.4537,1.4512,1.4513,1.4514,1.4515,0,0,0,0,0,0,0,1.4436,1.444,1.4476,1.4465,1.4465,1.4464,1.4466,1.4486,1.449,1.4475,1.4475,1.4477,1.4497,1.4504,1.4506,1.4537,1.4512,1.4514,1.4515,1.4516,1.4594,1.4595,0,0,0,0,0,0,1.4434,1.4438,1.4475,1.4476,1.4449,1.4466,1.4468,1.4477,1.449,1.4491,1.4478,1.4477,1.4501,1.4504,1.4507,1.4542,1.4514,1.4516,1.4517,1.4593,1.4595,1.4596,0,0,0,0,0,0,1.4433,1.4438,1.4474,1.4457,1.4462,1.4467,1.4477,1.4478,1.4485,1.4492,1.4493,1.4484,1.4501,1.4504,1.4528,1.4543,1.4517,1.4518,1.4592,1.4594,1.4595,1.4612,0,0,0,0,0,0,1.4432,1.4437,1.4447,1.4458,1.4463,1.4494,1.4478,1.4479,1.4488,1.4486,1.4498,1.4499,1.45,1.4526,1.453,1.4545,1.452,1.4591,1.4593,1.4595,1.461,1.4614,1.4617,0,0,0,0,0,1.443,1.4451,1.4448,1.4452,1.4475,1.4495,1.4498,1.4498,1.4489,1.45,1.4505,1.4499,1.4541,1.4528,1.4533,1.4549,1.459,1.4592,1.4595,1.4609,1.4614,1.4617,0,0,0,0,0,0,1.4442,1.4452,1.4449,1.4473,1.4484,1.4493,1.4507,1.4503,1.4516,1.4514,1.4514,1.4517,1.4542,1.4548,1.4534,1.4578,1.4564,1.4567,1.4573,1.4578,1.4581,1.458,1.4521,0,0,0,0,0,1.4448,1.4462,1.447,1.4492,1.4497,1.4501,1.451,1.4509,1.452,1.4524,1.4531,1.4542,1.4558,1.4568,1.4583,1.4611,1.4615,1.4625,1.4628,1.4631,1.4634,1.4652,1.4657,1.4603,1.4603,1.4603,0,0,1.4459,1.4467,1.4476,1.4494,1.4502,1.4518,1.4505,1.4522,1.4534,1.4527,1.455,1.4555,1.4568,1.4595,1.4607,1.46,1.465,1.4634,1.4636,1.4638,1.4655,1.466,1.4664,1.4605,1.4604,1.4604,0,0,1.4489,1.4495,1.4514,1.4523,1.4534,1.4537,1.4542,1.4553,1.4556,1.458,1.4575,1.459,1.4617,1.4627,1.4635,1.4671,1.4666,1.4675,1.4694,1.4711,1.4715,1.4719,1.4733,1.4738,1.4678,1.4678,1.4678,0,1.4502,1.4525,1.4525,1.4543,1.4552,1.4546,1.4566,1.4575,1.4591,1.4598,1.459,1.4625,1.4633,1.4663,1.4672,1.4678,1.4685,1.4674,1.4715,1.4718,1.4722,1.4736,1.4741,1.4679,1.4679,1.4679,1.4679,0,1.4542,1.4558,1.4572,1.4588,1.4599,1.4618,1.4622,1.4633,1.4632,1.4636,1.4661,1.4671,1.4688,1.4695,1.4694,1.4726,1.4721,1.4714,1.47,1.4728,1.4741,1.4746,1.4681,1.4681,1.468,1.468,0,0,1.4579,1.4595,1.4601,1.4609,1.4622,1.4635,1.4655,1.4672,1.4683,1.4694,1.4712,1.4736,1.473,1.4739,1.474,1.4755,1.4784,1.4746,1.4746,1.4754,1.4822,1.4828,1.4834,1.4782,1.4783,1.4783,1.4821,0,1.461,1.4644,1.4645,1.4676,1.4693,1.4688,1.4706,1.4717,1.4722,1.4737,1.4743,1.476,1.475,1.4756,1.4771,1.4777,1.4798,1.4775,1.4799,1.48,1.4797,1.484,1.4846,1.4882,1.4826,1.4827,1.4828,0,1.4651,1.4665,1.4698,1.4711,1.4718,1.4733,1.475,1.4764,1.4777,1.478,1.4792,1.4791,1.4812,1.4798,1.4829,1.4813,1.4823,1.4828,1.483,1.4833,1.4816,1.4846,1.4893,1.4899,1.4835,1.4835,1.4834,0,1.4677,1.4703,1.4727,1.4734,1.4749,1.4761,1.4768,1.478,1.4791,1.4806,1.4813,1.483,1.484,1.4854,1.4859,1.4847,1.489,1.4875,1.4894,1.4894,1.4904,1.4903,1.4955,1.4909,1.4909,1.4909,1.4909,0,1.4712,1.4733,1.4739,1.4753,1.4777,1.4779,1.4803,1.4809,1.4821,1.4838,1.4835,1.4851,1.4855,1.4872,1.4876,1.4902,1.4906,1.491,1.4911,1.4911,1.4911,1.4918,1.4916,1.491,1.491,1.491,1.4909,0,1.4745,1.4749,1.4775,1.4788,1.4792,1.4809,1.482,1.4835,1.484,1.4862,1.4867,1.4875,1.4896,1.4901,1.4926,1.4928,1.496,1.4958,1.4955,1.4956,1.4975,1.4974,1.5034,1.5042,1.499,1.499,1.4991,0,1.4768,1.4784,1.4798,1.4809,1.4817,1.4835,1.4846,1.4849,1.4861,1.4878,1.4891,1.4912,1.4928,1.4961,1.497,1.499,1.4989,1.5009,1.4992,1.4992,1.4991,1.499,1.4993,1.5012,1.5013,1.5013,1.5013,0,1.4808,1.481,1.4826,1.4843,1.4857,1.4871,1.4884,1.4894,1.4899,1.4913,1.4934,1.4946,1.4972,1.4993,1.5013,1.5021,1.5019,1.5019,1.5024,1.5025,1.5023,1.5026,1.4965,1.5017,1.5017,1.5017,1.5016,1.5016,1.4837,1.4852,1.4865,1.4884,1.4894,1.4907,1.4922,1.493,1.4947,1.4968,1.4969,1.4992,1.5007,1.5033,1.5043,1.5063,1.5057,1.5065,1.5067,1.5069,1.5071,1.502,1.5066,1.5066,1.5066,1.5066,1.5066,0,1.4879,1.4888,1.4905,1.4924,1.4939,1.4935,1.495,1.4963,1.4983,1.4997,1.5013,1.5039,1.5059,1.507,1.5091,1.5105,1.5105,1.511,1.511,1.5112,1.5074,1.5068,1.511,1.511,1.511,1.511,1.511,1.511,1.4903,1.4928,1.4932,1.4963,1.4971,1.4994,1.5003,1.5016,1.5027,1.5055,1.5072,1.5079,1.5092,1.5115,1.5134,1.5137,1.5145,1.5152,1.5155,1.5119,1.5115,1.511,1.5104,1.5154,1.5154,1.5191,1.5192,1.5192]},{"header":{"parameterUnit":"m.s-1","parameterCategory":1,"la1":30.2991,"la2":30.254,"lo1":-89.0895,"lo2":-89.0444,"dy":0.0017,"dx":0.0017,"nx":28,"ny":28,"refTime":"2024-03-21T21:00:00:Z","depth":0,"parameterNumber":3,"parameterNumberName":"V-component_of_WINDS"},"data":[0,0,0,0,0,0,0,0,0,0,0,0,0,0,0,0,0,0,0,0,0,0,0,0,0,0,0,0,0,0,0,0,0,0,0,0,0,0,0,0,0,0,0,0,0,0,0,0,0,0,0,0,0,0,0,0,0,0,-7.4514,-7.4514,0,-7.4585,-7.4586,-7.4587,-7.4518,-7.4515,-7.4512,-7.451,-7.4576,-7.4581,-7.4585,0,0,0,0,0,0,0,0,0,0,0,0,0,-7.4314,-7.4318,-7.4514,-7.4514,-7.4515,-7.4585,-7.4586,-7.4587,-7.4518,-7.4515,-7.4512,-7.4509,-7.4575,-7.458,-7.4585,0,0,0,0,0,0,0,0,0,0,0,0,0,-7.4394,-7.4319,-7.4513,-7.449,-7.4488,-7.4585,-7.4586,-7.4587,-7.4519,-7.4515,-7.4511,-7.4507,-7.4573,-7.458,-7.4586,-7.4707,0,0,-7.4606,-7.4609,0,0,0,0,0,0,0,0,-7.439,-7.4401,-7.4492,-7.4492,-7.449,-7.4538,-7.454,-7.4627,-7.452,-7.4507,-7.451,-7.4505,-7.4567,-7.4573,-7.4596,-7.471,-7.4713,-7.4606,-7.461,-7.4613,-7.4615,0,0,0,0,0,0,0,-7.4384,-7.4398,-7.4542,-7.4494,-7.4492,-7.4474,-7.4481,-7.4556,-7.4559,-7.4508,-7.4503,-7.4513,-7.4565,-7.459,-7.4597,-7.4714,-7.4606,-7.4612,-7.4616,-7.4618,-7.4934,-7.4939,0,0,0,0,0,0,-7.4382,-7.4394,-7.4539,-7.4544,-7.4429,-7.4481,-7.4489,-7.4527,-7.4558,-7.4559,-7.4516,-7.4509,-7.458,-7.4589,-7.4599,-7.4744,-7.4613,-7.4619,-7.4623,-7.493,-7.4935,-7.494,0,0,0,0,0,0,-7.4378,-7.4396,-7.4536,-7.4468,-7.4484,-7.4489,-7.4532,-7.4531,-7.4555,-7.4564,-7.4564,-7.4541,-7.4578,-7.459,-7.4682,-7.4745,-7.4622,-7.4628,-7.4925,-7.4932,-7.4938,-7.5035,0,0,0,0,0,0,-7.4372,-7.4394,-7.4441,-7.4469,-7.4488,-7.462,-7.4536,-7.4535,-7.4567,-7.4559,-7.4587,-7.4588,-7.4575,-7.4673,-7.4688,-7.4752,-7.4633,-7.4919,-7.4928,-7.4936,-7.5026,-7.5044,-7.506,0,0,0,0,0,-7.4365,-7.4464,-7.4444,-7.4462,-7.4547,-7.4624,-7.4634,-7.462,-7.4572,-7.4619,-7.4626,-7.4587,-7.4736,-7.4683,-7.47,-7.4766,-7.4915,-7.4925,-7.4935,-7.5019,-7.5041,-7.506,0,0,0,0,0,0,-7.444,-7.4467,-7.4445,-7.4556,-7.4589,-7.4612,-7.467,-7.4643,-7.4688,-7.4678,-7.4656,-7.4663,-7.4761,-7.4773,-7.4713,-7.4886,-7.4817,-7.4832,-7.4875,-7.4896,-7.4913,-7.4908,-7.4638,0,0,0,0,0,-7.447,-7.4532,-7.4551,-7.4647,-7.4665,-7.4665,-7.4698,-7.4684,-7.4716,-7.4729,-7.4741,-7.4772,-7.4826,-7.4862,-7.4912,-7.5028,-7.5033,-7.5082,-7.5099,-7.5113,-7.5125,-7.5189,-7.5211,-7.4974,-7.4974,-7.4973,0,0,-7.4531,-7.4553,-7.4593,-7.4663,-7.4686,-7.4749,-7.4677,-7.4746,-7.4792,-7.4738,-7.4827,-7.4838,-7.4871,-7.4976,-7.5023,-7.4989,-7.5193,-7.5126,-7.5137,-7.5142,-7.5202,-7.5224,-7.5244,-7.4981,-7.4979,-7.4978,0,0,-7.4675,-7.4698,-7.4782,-7.4808,-7.4846,-7.4846,-7.4867,-7.4895,-7.4902,-7.4991,-7.4952,-7.5007,-7.51,-7.5125,-7.515,-7.5309,-7.5275,-7.5325,-7.5413,-7.5476,-7.5494,-7.5511,-7.5568,-7.5589,-7.5338,-7.5338,-7.5338,0,-7.4745,-7.4841,-7.4827,-7.4901,-7.4933,-7.4891,-7.4975,-7.5,-7.5051,-7.5074,-7.5035,-7.5153,-7.5172,-7.5284,-7.5323,-7.5345,-7.5367,-7.5321,-7.5493,-7.551,-7.5525,-7.5579,-7.56,-7.5344,-7.5343,-7.5343,-7.5342,0,-7.4927,-7.4994,-7.5056,-7.5111,-7.515,-7.5228,-7.5226,-7.5266,-7.5251,-7.5255,-7.5347,-7.5369,-7.5424,-7.5449,-7.5433,-7.556,-7.5537,-7.5497,-7.5427,-7.5554,-7.5604,-7.5625,-7.5352,-7.535,-7.5348,-7.5347,0,0,-7.5117,-7.5166,-7.5189,-7.5215,-7.5255,-7.5306,-7.5383,-7.5439,-7.5475,-7.5513,-7.5576,-7.5658,-7.5622,-7.565,-7.5637,-7.5692,-7.5817,-7.5644,-7.5645,-7.5676,-7.5959,-7.599,-7.6014,-7.5796,-7.58,-7.5803,-7.5957,0,-7.5263,-7.5399,-7.5391,-7.5518,-7.558,-7.5542,-7.5609,-7.5641,-7.5648,-7.57,-7.5707,-7.5766,-7.5713,-7.573,-7.5783,-7.5791,-7.5874,-7.578,-7.5854,-7.5857,-7.5847,-7.604,-7.6072,-7.6216,-7.5976,-7.598,-7.5982,0,-7.5451,-7.5499,-7.5634,-7.5668,-7.5694,-7.5754,-7.5807,-7.5858,-7.5893,-7.5894,-7.5929,-7.5907,-7.5984,-7.5914,-7.6019,-7.5956,-7.5986,-7.5995,-7.6,-7.6005,-7.5927,-7.6052,-7.6262,-7.6283,-7.6013,-7.601,-7.6008,0,-7.5577,-7.5675,-7.5769,-7.5792,-7.5834,-7.5878,-7.5897,-7.5928,-7.5964,-7.6009,-7.6032,-7.6085,-7.6113,-7.6154,-7.6147,-7.6096,-7.6255,-7.6184,-7.6258,-7.6258,-7.6292,-7.629,-7.651,-7.6312,-7.6311,-7.6311,-7.6311,0,-7.5741,-7.5825,-7.5827,-7.5885,-7.5978,-7.5968,-7.606,-7.6073,-7.6103,-7.6162,-7.6131,-7.6187,-7.6174,-7.623,-7.6224,-7.6313,-7.6326,-7.6328,-7.6326,-7.6331,-7.6331,-7.635,-7.634,-7.6317,-7.6315,-7.6314,-7.6313,0,-7.5897,-7.5902,-7.6002,-7.6035,-7.6046,-7.6113,-7.614,-7.6195,-7.62,-7.6276,-7.6293,-7.6301,-7.6364,-7.6362,-7.6433,-7.643,-7.6539,-7.6525,-7.6529,-7.6525,-7.66,-7.6593,-7.684,-7.6872,-7.6653,-7.6655,-7.6657,0,-7.6001,-7.6066,-7.6107,-7.6146,-7.6169,-7.6232,-7.6269,-7.6261,-7.6301,-7.6348,-7.6397,-7.6459,-7.6508,-7.6611,-7.6622,-7.6677,-7.6664,-7.6747,-7.6671,-7.6676,-7.6666,-7.6662,-7.6669,-7.6761,-7.6763,-7.6765,-7.6767,0,-7.6186,-7.6186,-7.6242,-7.6301,-7.6347,-7.6392,-7.6433,-7.6466,-7.6463,-7.6509,-7.6576,-7.6614,-7.6689,-7.6751,-7.6804,-7.6821,-7.6794,-7.6791,-7.6811,-7.6817,-7.6817,-7.6819,-7.6569,-7.6785,-7.6783,-7.6782,-7.6781,-7.678,-7.6319,-7.6376,-7.6415,-7.6479,-7.6511,-7.6551,-7.6604,-7.6618,-7.6675,-7.6737,-7.6729,-7.6804,-7.6839,-7.6908,-7.6931,-7.6989,-7.6959,-7.6988,-7.6995,-7.7002,-7.7011,-7.6808,-7.6998,-7.6998,-7.6997,-7.6997,-7.6996,0,-7.6503,-7.6527,-7.6587,-7.6648,-7.6699,-7.6672,-7.6717,-7.676,-7.6827,-7.6864,-7.6914,-7.6992,-7.7052,-7.707,-7.7128,-7.7171,-7.716,-7.7186,-7.7183,-7.7187,-7.7034,-7.7011,-7.7194,-7.7194,-7.7194,-7.7194,-7.7194,-7.7194,-7.6604,-7.6699,-7.6705,-7.6815,-7.6838,-7.6914,-7.6942,-7.6979,-7.7008,-7.7097,-7.7149,-7.7161,-7.719,-7.7251,-7.7305,-7.7308,-7.7331,-7.7363,-7.7362,-7.7218,-7.7198,-7.7179,-7.7157,-7.7368,-7.7368,-7.751,-7.7512,-7.7513]}]]